This demonstration page uses our WeatherBlox Daily Observations layout. Learn more.

Left ArrowRight Arrow

30.21309, -93.2044

Hourly Observations for August 25, 2022

Temp ( °F °C ) Dew Point ( °F °C ) Humidity (%) Winds ( mph kmh ) Pressure ( in mb ) Visibility ( mi km ) Precip ( " mm )
12:15 am 00:15 Mostly Cloudy with Mist and Fog 75 24 73 23 94 94 Calm 29.92 1013 5 8 0.00 0.00
12:35 am 00:35 Cloudy 76 24.3 74 23.5 95 95 Calm 29.93 1014 10 16 0.00 0.00
12:55 am 00:55 Cloudy 76 24.5 75 23.7 95 95 Calm 29.93 1014 10 16 0.00 0.00
1:15 am 01:15 Mostly Cloudy 76 24.2 74 23.4 95 95 ESE 3 6 29.92 1013 10 16 0.00 0.00
1:35 am 01:35 Partly Cloudy 76 24.4 74 23.6 95 95 Calm 29.92 1013 10 16 0.00 0.00
1:55 am 01:55 Mostly Cloudy 76 24.4 74 23.6 95 95 Calm 29.92 1013 10 16 0.00 0.00
2:15 am 02:15 Partly Cloudy 76 24.4 74 23.5 95 95 Calm 29.92 1013 7 11 0.00 0.00
2:35 am 02:35 Mostly Cloudy 76 24.4 74 23.6 95 95 Calm 29.91 1013 10 16 0.00 0.00
2:55 am 02:55 Mostly Cloudy 76 24.2 74 23.4 95 95 E 5 7 29.91 1013 7 11 0.00 0.00
3:15 am 03:15 Cloudy 76 24.4 74 23.6 95 95 E 3 6 29.91 1013 10 16 0.00 0.00
3:35 am 03:35 Cloudy with Nearby Thunderstorms 77 24.8 75 24 95 95 SE 8 13 29.91 1013 4 6 0.03 0.76
3:55 am 03:55 Cloudy 76 24.7 75 23.8 95 95 S 3 6 29.91 1013 10 16 0.04 1.02
4:15 am 04:15 Cloudy with Light Rain 77 24.8 75 23.8 94 94 SE 5 7 29.91 1013 10 16 0.00 0.00
4:35 am 04:35 Cloudy 76 24.6 74 23.6 94 94 S 5 7 29.91 1013 10 16 0.00 0.00
4:55 am 04:55 Cloudy 76 24.6 74 23.5 94 94 SSE 6 9 29.91 1013 10 16 0.00 0.00
5:15 am 05:15 Mostly Cloudy with Nearby Thunderstorms 75 24.1 73 23 94 94 SSE 7 11 29.91 1013 10 16 0.00 0.00
5:35 am 05:35 Partly Cloudy with Nearby Thunderstorms 75 23.8 73 22.5 92 92 S 8 13 29.92 1013 10 16 0.00 0.00
6:00 am 06:00 Mostly Cloudy with Thunderstorms 75 24 73 23 94 94 S 12 19 29.92 1013 10 16 0.00 0.00
6:55 am 06:55 Partly Cloudy with Thunderstorms 73 23 72 22 94 94 S 8 13 29.94 1014 10 16 0.00 0.00
7:45 am 07:45 Mostly Cloudy 75 24 73 23 94 94 SSW 9 15 29.96 1015 10 16 0.00 0.00
8:45 am 08:45 Mostly Cloudy 79 26 75 24 89 89 SSW 10 17 29.98 1015 10 16 0.00 0.00
9:50 am 09:50 Mostly Cloudy 82 28 75 24 79 79 SSW 9 15 29.98 1015 10 16 0.00 0.00
10:50 am 10:50 Mostly Cloudy 84 29 75 24 74 74 WSW 9 15 29.98 1015 10 16 0.00 0.00
11:45 am 11:45 Mostly Cloudy 84 29 73 23 70 70 SW 5 7 29.99 1016 10 16 0.00 0.00
12:45 pm 12:45 Mostly Cloudy 88 31 73 23 63 63 Calm 29.97 1015 10 16 0.00 0.00
1:27 pm 13:27 Mostly Cloudy with Thunderstorms 81 27 75 24 84 84 S 14 22 29.97 1015 5 8 0.00 0.00
1:50 pm 13:50 Mostly Cloudy 82 28 75 24 79 79 SW 12 19 29.95 1014 10 16 0.00 0.00
2:50 pm 14:50 Partly Cloudy 88 31 73 23 63 63 WSW 9 15 29.93 1013 10 16 0.00 0.00
3:50 pm 15:50 Partly Cloudy 90 32 75 24 63 63 WSW 7 11 29.91 1013 10 16 0.00 0.00
4:53 pm 16:53 Partly Cloudy 90 32 73 23 59 59 SSW 10 17 29.91 1013 10 16 0.00 0.00
5:48 pm 17:48 Partly Cloudy 88 31 75 24 66 66 SSW 12 19 29.90 1012 10 16 0.00 0.00
6:55 pm 18:55 Partly Cloudy 84 29 77 25 79 79 SSW 10 17 29.90 1012 10 16 0.00 0.00
7:47 pm 19:47 Mostly Cloudy 81 27 73 23 79 79 WNW 17 28 29.93 1013 10 16 0.00 0.00
8:50 pm 20:50 Mostly Cloudy with Thunderstorms 75 24 73 23 94 94 NE 9 15 29.97 1015 10 16 0.00 0.00
9:45 pm 21:45 Partly Cloudy 75 24 73 23 94 94 Calm 29.97 1015 10 16 0.00 0.00
10:15 pm 22:15 Clear 75 24 73 22.9 94 94 Calm 29.96 1015 10 16 0.00 0.00
10:35 pm 22:35 Clear 75 24.1 73 22.8 92 92 Calm 29.97 1015 10 16 0.00 0.00
10:55 pm 22:55 Clear 76 24.2 73 22.8 92 92 Calm 29.95 1014 10 16 0.00 0.00
11:15 pm 23:15 Clear 75 24 73 22.8 93 93 ESE 3 6 29.96 1015 10 16 0.00 0.00
11:35 pm 23:35 Clear 76 24.3 73 23 92 92 Calm 29.95 1014 10 16 0.00 0.00
11:55 pm 23:55 Clear 75 24.1 73 23 94 94 SSW 5 7 29.95 1014 10 16 0.00 0.00

Powered by AerisWeather